Oakland, CA

8:57 AM PST on December 12, 2019 (GMT -0800)
Metro Oakland International

Weather History for KOAK - November, 2019

Change the Weather History Date:

Saturday, November 16, 2019

  Actual Average Record
Temperature  
Mean Temperature 59 °F 54 °F  
Max Temperature 69 °F 63 °F 74 °F (1977)
Min Temperature 48 °F 45 °F 35 °F (1958)
Degree Days  
Heating Degree Days 6 11  
Month to date heating degree days 127 145  
Since 1 July heating degree days 280 497  
Cooling Degree Days 0 0  
Month to date cooling degree days 0 0  
Year to date cooling degree days 395 137  
Growing Degree Days 10 (Base 50)    
Moisture  
Dew Point 53 °F    
Average Humidity 76    
Maximum Humidity 93    
Minimum Humidity 59    
Precipitation  
Precipitation 0.00 in 0.08 in 1.87 in (2017)
Month to date precipitation T 1.23  
Year to date precipitation 15.94 15.93  
Sea Level Pressure  
Sea Level Pressure 30.14 in    
Wind  
Wind Speed 3 mph (SW)    
Max Wind Speed 10 mph    
Max Gust Speed 13 mph    
Visibility 4 miles    
Events Fog    
T = Trace of Precipitation, MM = Missing Value Source: NWS Daily Summary

Daily Weather History Graph

Daily Weather History Graph

Search for Another Location

Airport or City:

Astronomy

Nov. 16, 2019 Rise Set
Actual Time 6:49 AM PST 4:56 PM PST
Civil Twilight 6:21 AM PST 5:25 PM PST
Nautical Twilight 5:50 AM PST 5:56 PM PST
Astronomical Twilight 5:19 AM PST 6:27 PM PST
Moon 8:37 PM PST (11/16) 10:46 AM PST (11/16)
Length of Visible Light 11h 03m
Length of Day
10h 07m
Waning Gibbous, 81% of the Moon is Illuminated
Nov 16
Waning Gibbous
Nov 19
Last Quarter
Nov 26
New
Dec 3
First Quarter
Dec 11
Full

Hourly Weather History & Observations

Time (PST) Temp. Dew Point Humidity Pressure Visibility Wind Dir Wind Speed Gust Speed Precip Events Conditions
12:15 AM 55.9 °F 54.0 °F 93% 30.16 in 5.0 mi SSE 4.6 mph - N/A   Overcast
12:53 AM 55.9 °F 53.1 °F 90% 30.16 in 5.0 mi SE 4.6 mph - N/A   Overcast
1:53 AM 55.9 °F 54.0 °F 93% 30.17 in 4.0 mi Calm Calm - N/A   Overcast
2:53 AM 55.9 °F 54.0 °F 93% 30.15 in 3.0 mi Calm Calm - N/A   Overcast
3:53 AM 55.9 °F 54.0 °F 93% 30.15 in 3.0 mi Calm Calm - N/A   Overcast
4:41 AM 55.9 °F 54.0 °F 93% 30.15 in 1.2 mi SSE 4.6 mph - N/A   Overcast
4:53 AM 55.9 °F 53.1 °F 90% 30.15 in 0.5 mi SE 4.6 mph - N/A Fog Fog
5:15 AM 55.0 °F 53.1 °F 93% 30.15 in 0.2 mi SSE 4.6 mph - N/A Fog Fog
5:53 AM 55.0 °F 53.1 °F 93% 30.15 in 0.2 mi SSW 4.6 mph - N/A Fog Fog
6:14 AM 55.0 °F 53.1 °F 93% 30.17 in 0.5 mi WSW 3.5 mph - N/A Fog Fog
6:42 AM 55.0 °F 54.0 °F 96% 30.17 in 1.0 mi Calm Calm - N/A   Overcast
6:53 AM 55.0 °F 54.0 °F 96% 30.17 in 1.0 mi Calm Calm - N/A   Overcast
7:18 AM 55.0 °F 54.0 °F 96% 30.17 in 0.8 mi Calm Calm - N/A   Overcast
7:41 AM 55.0 °F 53.1 °F 93% 30.17 in 0.2 mi SSE 3.5 mph - N/A Fog Fog
7:53 AM 55.0 °F 53.1 °F 93% 30.17 in 0.2 mi Calm Calm - N/A Fog Fog
8:43 AM 55.0 °F 53.1 °F 93% 30.18 in 0.5 mi South 3.5 mph - N/A Fog Fog
8:53 AM 55.0 °F 53.1 °F 93% 30.18 in 0.5 mi South 3.5 mph - N/A Fog Fog
9:53 AM 55.0 °F 54.0 °F 96% 30.19 in 0.5 mi Calm Calm - N/A Fog Fog
10:53 AM 57.0 °F 52.0 °F 83% 30.17 in 3.0 mi WSW 5.8 mph - N/A   Haze
11:38 AM 57.0 °F 53.1 °F 87% 30.14 in 2.0 mi WSW 4.6 mph - N/A   Overcast
11:53 AM 55.9 °F 53.1 °F 90% 30.14 in 2.5 mi WSW 4.6 mph - N/A   Overcast
12:53 PM 57.9 °F 53.1 °F 84% 30.12 in 2.5 mi WNW 8.1 mph - N/A   Haze
1:19 PM 62.1 °F 55.9 °F 80% 30.10 in 5.0 mi Calm Calm - N/A   Haze
1:53 PM 63.0 °F 54.0 °F 72% 30.09 in 6.0 mi WNW 4.6 mph - N/A   Haze
2:53 PM 68.0 °F 54.0 °F 61% 30.08 in 10.0 mi Calm Calm - N/A   Mostly Cloudy
3:45 PM 63.0 °F 54.0 °F 72% 30.07 in 9.0 mi WNW 9.2 mph - N/A   Mostly Cloudy
3:53 PM 62.1 °F 54.0 °F 75% 30.08 in 10.0 mi NW 6.9 mph - N/A   Mostly Cloudy
4:53 PM 60.1 °F 52.0 °F 75% 30.08 in 10.0 mi WNW 8.1 mph - N/A   Mostly Cloudy
5:53 PM 59.0 °F 53.1 °F 81% 30.09 in 10.0 mi NW 4.6 mph - N/A   Mostly Cloudy
6:53 PM 59.0 °F 51.1 °F 75% 30.10 in 10.0 mi Calm Calm - N/A   Scattered Clouds
7:53 PM 57.0 °F 51.1 °F 81% 30.10 in 10.0 mi Calm Calm - N/A   Partly Cloudy
8:53 PM 55.9 °F 51.1 °F 84% 30.11 in 10.0 mi Calm Calm - N/A   Partly Cloudy
9:53 PM 53.1 °F 50.0 °F 89% 30.12 in 10.0 mi Calm Calm - N/A Fog Shallow Fog
10:53 PM 51.1 °F 48.0 °F 89% 30.11 in 8.0 mi Calm Calm - N/A Fog Shallow Fog
11:53 PM 52.0 °F 50.0 °F 93% 30.11 in 10.0 mi Calm Calm - N/A Fog Shallow Fog